Location: Forestville
(38.4740°N, 122.8890°W)
Time: 22:29:26
(UTC-07:00)

Amateur Radio Satellites - All Passes

Search period start: 30 July 2016 21:59
Search period end: 31 July 2016 21:59
Location: Forestville, 38.4740°N, 122.8890°W

Satellite Date Start Highest point End Downlink Frequencies (MHz)
Time Altitude Azimuth
FUNcube-1 30 Jul 22:07:20 22:11:45 51° 261° (W) 22:16:14 145.935
AO-85 30 Jul 22:08:34 22:12:50 50° 55° (NE) 22:16:45 145.980
ZACube-1 30 Jul 22:10:44 22:15:04 43° 261° (W) 22:19:29 437.345
Cosmos 2504 30 Jul 22:13:12 22:21:13 70° 81° (E) 22:28:37 435.465 / 435.565
UWE-3 30 Jul 22:20:29 22:24:09 23° 266° (W) 22:27:54 435.000/436.395/437.385
STRAND 1 30 Jul 22:20:51 22:21:44 10° 301° (WNW) 22:22:37 437.568
TIGRISAT 30 Jul 22:20:54 22:22:33 12° 90° (E) 22:24:12 435.000
HO-68 30 Jul 22:21:11 22:24:14 13° 271° (W) 22:27:17 435.675
Cosmos 2491 30 Jul 22:32:29 22:41:01 59° 281° (W) 22:49:37 435.465 / 435.565
UNISAT 6 30 Jul 22:37:15 22:40:36 20° 93° (E) 22:43:53 437.425
Oscar 11 30 Jul 22:45:57 22:48:50 17° 267° (W) 22:51:43 145.826/435.025
HUMSAT D 30 Jul 22:48:40 22:52:58 76° 259° (WSW) 22:57:17 437.325/437.525
CUBEBUG 1 30 Jul 22:49:05 22:50:21 11° 63° (ENE) 22:51:38 437.445
M-CUBED/EXP-1 PRIME 30 Jul 22:55:47 22:59:10 30° 259° (W) 23:02:50 437.505
ESTCUBE 1 30 Jul 22:57:46 23:01:15 22° 68° (ENE) 23:04:43 437.505/2401.250
VELOX 1 30 Jul 22:58:15 23:00:12 13° 64° (ENE) 23:02:09 145.980
YUBILEINY 30 Jul 23:08:52 23:14:32 19° 281° (W) 23:20:12 435.215
ANTELSAT 30 Jul 23:14:42 23:19:11 51° 99° (E) 23:23:31 437.575/2403.000
AUBIESAT-1 30 Jul 23:18:46 23:21:44 21° 262° (W) 23:24:52 437.475
DELFI C3 30 Jul 23:20:31 23:22:39 14° 267° (W) 23:24:48 145.870
DX 1 30 Jul 23:27:01 23:30:05 19° 66° (ENE) 23:33:09 434.975-435.025
50 SAT 30 Jul 23:32:35 23:35:41 27° 71° (ENE) 23:38:47 437.505
UKube-1 30 Jul 23:32:52 23:35:42 17° 66° (ENE) 23:38:33 .
AIST 1 30 Jul 23:39:00 23:41:55 17° 73° (ENE) 23:44:51
AISAT 30 Jul 23:41:06 23:45:10 39° 72° (ENE) 23:49:17 437.250
QB50P2 30 Jul 23:47:36 23:50:30 18° 94° (E) 23:53:23 145.880/145.840
POLYITAN 1 30 Jul 23:50:11 23:53:09 18° 94° (E) 23:56:04 437.675
AO-85 30 Jul 23:50:51 23:52:40 13° 253° (WSW) 23:54:27 145.980
TIGRISAT 30 Jul 23:55:07 23:59:39 59° 286° (WNW) 00:04:03 435.000
SPROUT 30 Jul 23:57:04 00:00:34 25° 69° (ENE) 00:04:05 437.525
Cosmos 2504 31 Jul 00:08:19 00:13:35 20° 280° (W) 00:18:38 435.465 / 435.565
UNISAT 6 31 Jul 00:13:12 00:17:24 36° 289° (WNW) 00:21:29 437.425
CUBEBUG 1 31 Jul 00:21:47 00:26:03 64° 258° (WSW) 00:30:22 437.445
BUGSAT 1 31 Jul 00:28:11 00:31:09 18° 94° (E) 00:34:06 437.445
NANOSAT C BR1 31 Jul 00:28:20 00:32:28 46° 99° (E) 00:36:33 145.865
DUCHIFAT 1 31 Jul 00:30:30 00:34:37 45° 99° (E) 00:38:41 145.980
VELOX 1 31 Jul 00:31:50 00:36:09 57° 259° (W) 00:40:29 145.980
ESTCUBE 1 31 Jul 00:33:52 00:37:52 31° 263° (W) 00:41:52 437.505/2401.250
TISAT 1 31 Jul 00:37:47 00:40:27 17° 66° (ENE) 00:43:08 437.305
ANTELSAT 31 Jul 00:52:48 00:55:24 15° 296° (WNW) 00:57:58 437.575/2403.000
QB50P1 31 Jul 00:53:12 00:57:30 83° 285° (WNW) 01:01:46 145.935-145.965
POPSAT HIP 1 31 Jul 01:00:06 01:04:23 70° 286° (WNW) 01:08:37 437.405
DX 1 31 Jul 01:02:02 01:06:00 35° 262° (W) 01:10:00 434.975-435.025
50 SAT 31 Jul 01:06:54 01:09:18 17° 266° (W) 01:11:43 437.505
UKube-1 31 Jul 01:07:25 01:11:25 39° 261° (W) 01:15:28 .
JAS-2 31 Jul 01:11:15 01:16:28 44° 100° (E) 01:22:12 435.910
AIST 1 31 Jul 01:15:38 01:19:38 35° 268° (W) 01:23:37
AISAT 31 Jul 01:18:56 01:21:47 17° 267° (W) 01:24:40 437.250
GONETS M04 31 Jul 01:19:36 01:26:19 23° 67° (ENE) 01:32:59
QB50P2 31 Jul 01:22:28 01:26:23 36° 289° (WNW) 01:30:17 145.880/145.840
POLYITAN 1 31 Jul 01:25:07 01:29:01 35° 289° (WNW) 01:32:54 437.675
BEESAT 31 Jul 01:25:59 01:27:51 12° 62° (ENE) 01:29:43 436.000
SPROUT 31 Jul 01:32:52 01:36:25 25° 264° (W) 01:40:00 437.525
Oscar 19 31 Jul 01:44:25 01:48:25 22° 94° (E) 01:52:24 437.125/150
ITUPSAT 1 31 Jul 01:50:03 01:53:38 21° 66° (ENE) 01:57:13 437.325
JUGNU 31 Jul 01:53:39 01:55:52 12° 178° (S) 01:58:06 437.505
Gurwin Techsat 1B 31 Jul 02:01:03 02:03:41 14° 91° (E) 02:06:19 435.225
BUGSAT 1 31 Jul 02:02:43 02:06:36 34° 289° (WNW) 02:10:27 437.445
NANOSAT C BR1 31 Jul 02:05:25 02:07:46 15° 295° (WNW) 02:10:07 145.865
DUCHIFAT 1 31 Jul 02:07:31 02:09:53 15° 295° (WNW) 02:12:15 145.980
ISS 31 Jul 02:08:36 02:11:27 27° 30° (NNE) 02:14:17 145.825
TISAT 1 31 Jul 02:11:50 02:15:46 39° 262° (W) 02:19:44 437.305
BEESAT 3 31 Jul 02:35:02 02:38:48 41° 55° (NE) 02:42:33 437.485
SWISSCUBE 31 Jul 02:39:21 02:44:08 77° 74° (ENE) 02:48:55 437.505
BEESAT 2 31 Jul 02:50:03 02:53:41 32° 53° (NE) 02:57:17 435.950
PCSat 31 Jul 02:50:15 02:53:41 17° 46° (NE) 02:57:07 145.827
Cosmos 2499 31 Jul 02:52:31 03:00:08 62° 79° (E) 03:07:13 435.465 / 435.565
JAS-2 31 Jul 02:57:09 03:01:22 23° 293° (WNW) 03:05:51 435.910
BEESAT 31 Jul 03:00:13 03:05:00 72° 259° (W) 03:09:48 436.000
MOZHAYETS 4 31 Jul 03:04:25 03:07:04 15° 65° (ENE) 03:09:43
GONETS M04 31 Jul 03:15:09 03:23:56 73° 267° (W) 03:32:42
CUSAT 1 31 Jul 03:19:23 03:22:53 33° 98° (E) 03:25:45 437.405
Oscar 19 31 Jul 03:23:01 03:27:52 41° 290° (WNW) 03:32:42 437.125/150
ITUPSAT 1 31 Jul 03:26:42 03:31:11 39° 262° (W) 03:35:40 437.325
ITAMSAT 1 31 Jul 03:27:58 03:32:30 30° 97° (E) 03:37:00 435.822/435.867
KKS-1 31 Jul 03:33:25 03:37:10 28° 69° (ENE) 03:40:57 437.445
AO-7 31 Jul 03:38:18 03:44:20 21° 93° (E) 03:50:17 29.400- 29.500
Gurwin Techsat 1B 31 Jul 03:38:48 03:44:04 67° 287° (WNW) 03:49:20 435.225
JUGNU 31 Jul 03:43:10 03:43:59 10° 189° (S) 03:44:48 437.505
ISS 31 Jul 03:44:56 03:47:53 32° 226° (SW) 03:50:49 145.825
STARS 31 Jul 04:00:03 04:03:42 26° 69° (ENE) 04:07:23 437.465
BEESAT 3 31 Jul 04:13:48 04:16:07 15° 250° (WSW) 04:18:26 437.485
SRMSAT 31 Jul 04:18:51 04:21:00 12° 179° (S) 04:23:09 437.500
DANDE 31 Jul 04:22:00 04:27:19 75° 98° (E) 04:31:15 436.750
RS-15 31 Jul 04:23:01 04:26:32 12° 94° (E) 04:30:06 29.354- 29.394
BEESAT 2 31 Jul 04:28:20 04:31:18 20° 249° (WSW) 04:34:15 435.950
PCSat 31 Jul 04:32:16 04:37:42 78° 244° (WSW) 04:43:06 145.827
CUBESAT XI-V 31 Jul 04:35:32 04:38:24 17° 66° (ENE) 04:41:18 437.345
MOZHAYETS 4 31 Jul 04:39:16 04:43:47 52° 260° (W) 04:48:19
Cosmos 2499 31 Jul 04:47:03 04:52:26 22° 279° (W) 04:57:36 435.465 / 435.565
O/OREOS (USA 219) 31 Jul 04:48:39 04:49:28 10° 53° (NE) 04:50:18 437.305
ITAMSAT 1 31 Jul 05:07:23 05:11:53 31° 292° (WNW) 05:16:22 435.822/435.867
KKS-1 31 Jul 05:10:01 05:13:40 25° 264° (W) 05:17:22 437.445
GONETS M04 31 Jul 05:16:23 05:19:03 12° 285° (WNW) 05:21:45
AIST 2 31 Jul 05:27:52 05:32:02 72° 57° (ENE) 05:36:12 435.215
AO-7 31 Jul 05:29:26 05:37:47 76° 291° (WNW) 05:46:03 29.400- 29.500
STARS 31 Jul 05:36:18 05:39:58 26° 264° (W) 05:43:40 437.465
GOMX 1 31 Jul 06:10:49 06:11:29 10° 89° (E) 06:12:10 467.674
CUBESAT XI-V 31 Jul 06:10:59 06:15:25 46° 261° (W) 06:19:51 437.345
STRAND 1 31 Jul 06:16:40 06:19:08 14° 61° (ENE) 06:21:35 437.568
O/OREOS (USA 219) 31 Jul 06:24:56 06:29:29 83° 252° (WSW) 06:34:03 437.305
RS-15 31 Jul 06:25:10 06:36:21 66° 114° (ESE) 06:48:11 29.354- 29.394
HORYU 2 31 Jul 06:25:21 06:29:49 74° 285° (WNW) 06:34:15 437.375
SO-50 31 Jul 06:45:53 06:50:03 29° 113° (ESE) 06:54:14 436.795
Cosmos 2491 31 Jul 06:51:44 06:54:22 11° 59° (ENE) 06:56:59 435.465 / 435.565
NOAA 18 31 Jul 06:53:08 06:58:00 31° 97° (E) 07:02:49 137.9125
Cubesat XI-IV 31 Jul 06:56:19 07:01:09 34° 97° (E) 07:05:56 437.490
BRITE-PL 31 Jul 07:05:58 07:11:01 83° 102° (ESE) 07:16:26 437.365/2234.400
DOVE 4 31 Jul 07:15:38 07:19:46 23° 93° (E) 07:23:55 437.250
LilacSat-2 31 Jul 07:16:28 07:20:16 57° 100° (E) 07:24:01 437.200
CUTE-I 31 Jul 07:18:12 07:23:27 56° 100° (E) 07:28:38 437.470
NOAA 15 31 Jul 07:23:14 07:28:32 83° 104° (ESE) 07:33:49 137.62
AO-7 31 Jul 07:24:28 07:29:10 17° 310° (NW) 07:33:51 29.400- 29.500
GOMX 1 31 Jul 07:44:48 07:50:03 88° 283° (WNW) 07:55:30 467.674
STRAND 1 31 Jul 07:52:31 07:57:39 73° 257° (WSW) 08:02:49 437.568
HO-68 31 Jul 07:59:14 08:04:14 20° 92° (E) 08:09:11 435.675
YUBILEINY 31 Jul 08:16:18 08:21:40 18° 78° (ENE) 08:27:00 435.215
SO-50 31 Jul 08:26:01 08:30:26 34° 309° (NW) 08:34:51 436.795
CANX-2 31 Jul 08:30:02 08:33:42 28° 96° (E) 08:37:19 2200.000
CINEMA 3 31 Jul 08:30:36 08:35:14 36° 97° (E) 08:39:45 145.822/145.860
NOAA 18 31 Jul 08:33:42 08:38:36 33° 293° (WNW) 08:43:27 137.9125
Cubesat XI-IV 31 Jul 08:36:33 08:41:05 29° 293° (WNW) 08:45:34 437.490
PRISM 31 Jul 08:38:31 08:42:19 41° 72° (ENE) 08:46:09 437.425
RS-15 31 Jul 08:38:53 08:49:35 40° 318° (NW) 09:00:51 29.354- 29.394
CUTE 1.7 + AOD 2 31 Jul 08:42:23 08:46:13 34° 97° (E) 08:50:02 437.475
Cosmos 2491 31 Jul 08:44:21 08:53:04 66° 80° (E) 09:01:48 435.465 / 435.565
BRITE-PL 31 Jul 08:47:07 08:48:55 12° 296° (WNW) 08:50:46 437.365/2234.400
DOVE 4 31 Jul 08:52:38 08:57:32 42° 288° (WNW) 09:02:29 437.250
CUTE-I 31 Jul 08:59:28 09:03:01 18° 297° (WNW) 09:06:32 437.470
Cosmos 2504 31 Jul 09:04:09 09:04:39 10° 74° (ENE) 09:05:08 435.465 / 435.565
NOAA 15 31 Jul 09:05:30 09:07:34 12° 300° (WNW) 09:09:38 137.62
CUBEBUG 2 31 Jul 09:06:56 09:10:44 24° 94° (E) 09:14:26 437.445
SEEDS 31 Jul 09:12:44 09:16:49 55° 100° (E) 09:20:54 437.485
COMPASS 1 31 Jul 09:15:50 09:19:44 40° 98° (E) 09:23:36 437.405
TIGRISAT 31 Jul 09:19:46 09:20:13 10° 61° (ENE) 09:20:39 435.000
GOMX 1 31 Jul 09:25:55 09:27:24 11° 298° (WNW) 09:28:54 467.674
UNISAT 6 31 Jul 09:35:03 09:37:57 17° 65° (ENE) 09:40:51 437.425
AAUSAT CUBESAT 2 31 Jul 09:39:18 09:43:23 61° 100° (E) 09:47:25 437.432
HO-68 31 Jul 09:45:20 09:52:30 71° 288° (WNW) 09:59:37 435.675
FUNcube-1 31 Jul 09:57:10 10:01:11 33° 97° (E) 10:05:05 145.935
ZACube-1 31 Jul 10:00:40 10:04:51 39° 98° (E) 10:08:54 437.345
CANX-2 31 Jul 10:06:10 10:09:23 22° 291° (WNW) 10:12:35 2200.000
CINEMA 3 31 Jul 10:08:07 10:12:06 24° 293° (WNW) 10:16:02 145.822/145.860
YUBILEINY 31 Jul 10:08:24 10:17:13 85° 277° (W) 10:26:07 435.215
UWE-3 31 Jul 10:10:38 10:15:13 83° 103° (ESE) 10:19:38 435.000/436.395/437.385
ANTELSAT 31 Jul 10:11:39 10:15:57 38° 72° (ENE) 10:20:19 437.575/2403.000
PRISM 31 Jul 10:15:41 10:17:48 14° 267° (W) 10:19:56 437.425
CUTE 1.7 + AOD 2 31 Jul 10:18:54 10:21:48 18° 293° (WNW) 10:24:41 437.475
Oscar 11 31 Jul 10:32:48 10:37:08 85° 281° (W) 10:41:25 145.826/435.025
HUMSAT D 31 Jul 10:34:36 10:37:31 18° 93° (E) 10:40:24 437.325/437.525
M-CUBED/EXP-1 PRIME 31 Jul 10:36:08 10:39:48 22° 99° (E) 10:43:24 437.505
QB50P2 31 Jul 10:40:17 10:41:52 12° 64° (ENE) 10:43:28 145.880/145.840
Cosmos 2491 31 Jul 10:42:31 10:49:06 25° 278° (W) 10:55:44 435.465 / 435.565
POLYITAN 1 31 Jul 10:42:47 10:44:30 12° 64° (ENE) 10:46:12 437.675
CUBEBUG 2 31 Jul 10:43:16 10:47:20 30° 290° (WNW) 10:51:17 437.445
Cosmos 2504 31 Jul 10:47:33 10:56:16 64° 92° (E) 11:04:53 435.465 / 435.565
SEEDS 31 Jul 10:50:30 10:52:02 12° 295° (WNW) 10:53:34 437.485
TIGRISAT 31 Jul 10:51:29 10:56:08 84° 256° (WSW) 11:00:53 435.000
COMPASS 1 31 Jul 10:52:31 10:54:56 15° 294° (WNW) 10:57:22 437.405
DELFI C3 31 Jul 10:57:17 11:01:15 80° 104° (ESE) 11:05:11 145.870
AUBIESAT-1 31 Jul 10:57:44 11:01:50 30° 101° (E) 11:05:49 437.475
RS-15 31 Jul 10:59:02 11:06:56 19° 351° (N) 11:15:02 29.354- 29.394
UNISAT 6 31 Jul 11:09:42 11:14:12 50° 261° (W) 11:18:48 437.425
AAUSAT CUBESAT 2 31 Jul 11:17:29 11:18:19 11° 296° (WNW) 11:19:10 437.432
BUGSAT 1 31 Jul 11:18:31 11:19:35 11° 63° (ENE) 11:20:39 437.445
NANOSAT C BR1 31 Jul 11:19:09 11:22:47 28° 70° (ENE) 11:26:27 145.865
DUCHIFAT 1 31 Jul 11:21:05 11:24:40 28° 70° (ENE) 11:28:19 145.980
JAS-2 31 Jul 11:24:59 11:28:08 15° 63° (ENE) 11:31:10 435.910
FUNcube-1 31 Jul 11:33:55 11:37:11 20° 293° (WNW) 11:40:22 145.935
HO-68 31 Jul 11:35:58 11:38:56 13° 307° (NW) 11:41:53 435.675
ZACube-1 31 Jul 11:37:49 11:40:47 18° 294° (WNW) 11:43:42 437.345
QB50P1 31 Jul 11:43:49 11:47:59 58° 74° (ENE) 11:52:11 145.935-145.965
ANTELSAT 31 Jul 11:49:22 11:52:46 20° 267° (W) 11:56:11 437.575/2403.000
POPSAT HIP 1 31 Jul 11:50:41 11:54:54 69° 75° (ENE) 11:59:11 437.405
HUMSAT D 31 Jul 12:09:29 12:13:12 31° 289° (WNW) 12:16:50 437.325/437.525
AIST 1 31 Jul 12:09:41 12:10:03 10° 84° (E) 12:10:27
M-CUBED/EXP-1 PRIME 31 Jul 12:10:00 12:14:21 37° 294° (WNW) 12:18:37 437.505
YUBILEINY 31 Jul 12:10:15 12:15:23 16° 297° (WNW) 12:20:34 435.215
CUBEBUG 1 31 Jul 12:12:08 12:15:49 25° 96° (E) 12:19:29 437.445
QB50P2 31 Jul 12:12:56 12:17:08 59° 259° (W) 12:21:23 145.880/145.840
POLYITAN 1 31 Jul 12:15:34 12:19:46 57° 259° (W) 12:24:01 437.675
AO-85 31 Jul 12:20:42 12:25:18 29° 112° (ESE) 12:29:46 145.980
VELOX 1 31 Jul 12:23:34 12:27:26 29° 97° (E) 12:31:18 145.980
ESTCUBE 1 31 Jul 12:27:06 12:31:32 58° 101° (E) 12:35:58 437.505/2401.250
AUBIESAT-1 31 Jul 12:32:13 12:36:08 27° 296° (WNW) 12:39:57 437.475
50 SAT 31 Jul 12:35:34 12:38:57 39° 99° (E) 12:42:19 437.505
Cosmos 2504 31 Jul 12:42:51 12:50:09 28° 290° (WNW) 12:57:26 435.465 / 435.565
BUGSAT 1 31 Jul 12:50:21 12:54:23 60° 259° (WSW) 12:58:31 437.445
DX 1 31 Jul 12:51:13 12:55:23 41° 99° (E) 12:59:31 434.975-435.025
NANOSAT C BR1 31 Jul 12:55:11 12:58:29 22° 265° (W) 13:01:49 145.865
UKube-1 31 Jul 12:55:43 12:59:43 36° 98° (E) 13:03:42 .
DUCHIFAT 1 31 Jul 12:57:00 13:00:20 22° 265° (W) 13:03:41 145.980
Oscar 19 31 Jul 12:59:52 13:04:10 28° 67° (ENE) 13:08:30 437.125/150
JAS-2 31 Jul 13:06:53 13:12:47 67° 258° (WSW) 13:18:09 435.910
AISAT 31 Jul 13:08:32 13:13:01 82° 284° (WNW) 13:17:29 437.250
RS-15 31 Jul 13:15:59 13:25:45 26° 28° (NNE) 13:35:29 29.354- 29.394
SPROUT 31 Jul 13:19:18 13:23:34 59° 100° (E) 13:27:49 437.525
Gurwin Techsat 1B 31 Jul 13:20:18 13:24:08 21° 64° (ENE) 13:27:59 435.225
QB50P1 31 Jul 13:23:09 13:24:06 11° 270° (W) 13:25:03 145.935-145.965
AIST 1 31 Jul 13:42:54 13:47:04 56° 280° (W) 13:51:17
CUBEBUG 1 31 Jul 13:48:19 13:52:00 27° 291° (WNW) 13:55:42 437.445
CUSAT 1 31 Jul 13:52:09 13:54:36 18° 78° (ENE) 13:57:27 437.405
TISAT 1 31 Jul 13:57:02 14:00:55 33° 98° (E) 14:04:45 437.305
VELOX 1 31 Jul 14:00:10 14:03:45 24° 292° (WNW) 14:07:20 145.980
AO-85 31 Jul 14:00:40 14:05:40 39° 307° (NW) 14:10:28 145.980
ESTCUBE 1 31 Jul 14:05:45 14:07:50 13° 296° (WNW) 14:09:55 437.505/2401.250
50 SAT 31 Jul 14:10:53 14:12:12 12° 294° (WNW) 14:13:31 437.505
PHONESAT 2.4 31 Jul 14:17:26 14:19:05 14° 146° (SE) 14:20:43 2401.200-2431.200
GONETS M04 31 Jul 14:19:34 14:26:27 27° 83° (E) 14:33:21
DX 1 31 Jul 14:28:23 14:31:13 17° 294° (WNW) 14:34:04 434.975-435.025
UKube-1 31 Jul 14:32:27 14:35:29 19° 294° (WNW) 14:38:32 .
AO-7 31 Jul 14:35:47 14:42:35 29° 58° (ENE) 14:49:24 29.400- 29.500
Oscar 19 31 Jul 14:38:49 14:43:21 32° 263° (W) 14:47:56 437.125/150
SWISSCUBE 31 Jul 14:41:46 14:45:24 22° 95° (E) 14:49:01 437.505
ITAMSAT 1 31 Jul 14:44:20 14:49:11 40° 70° (ENE) 14:54:03 435.822/435.867
SPROUT 31 Jul 14:57:17 14:58:59 12° 296° (WNW) 15:00:41 437.525
Gurwin Techsat 1B 31 Jul 14:58:35 15:03:42 49° 260° (W) 15:08:52 435.225
DANDE 31 Jul 15:01:13 15:03:42 28° 79° (E) 15:06:34 436.750
BEESAT 31 Jul 15:02:05 15:06:21 31° 97° (E) 15:10:33 436.000
SO-50 31 Jul 15:18:54 15:22:15 19° 45° (NE) 15:25:31 436.795
Cosmos 2499 31 Jul 15:25:12 15:33:46 56° 91° (E) 15:42:05 435.465 / 435.565
ITUPSAT 1 31 Jul 15:28:14 15:32:57 59° 101° (ESE) 15:37:37 437.325
RS-15 31 Jul 15:28:39 15:41:03 70° 56° (NE) 15:53:12 29.354- 29.394
TISAT 1 31 Jul 15:33:16 15:36:19 19° 293° (WNW) 15:39:20 437.305
CUSAT 1 31 Jul 15:33:39 15:36:28 22° 263° (W) 15:39:51 437.405
PHONESAT 2.4 31 Jul 15:52:09 15:55:11 66° 161° (SSE) 15:58:14 2401.200-2431.200
GONETS M04 31 Jul 16:14:04 16:22:36 60° 281° (W) 16:31:14
SWISSCUBE 31 Jul 16:18:56 16:23:16 36° 290° (WNW) 16:27:34 437.505
ITAMSAT 1 31 Jul 16:24:42 16:28:46 23° 265° (W) 16:32:51 435.822/435.867
AO-7 31 Jul 16:26:28 16:34:44 65° 255° (WSW) 16:43:04 29.400- 29.500
MOZHAYETS 4 31 Jul 16:35:45 16:40:02 39° 98° (E) 16:44:17
BEESAT 31 Jul 16:40:06 16:43:58 25° 293° (WNW) 16:47:48 436.000
SO-50 31 Jul 16:58:34 17:03:02 51° 244° (WSW) 17:07:21 436.795
KKS-1 31 Jul 17:01:19 17:05:48 68° 101° (ESE) 17:10:16 437.445
NOAA 15 31 Jul 17:05:19 17:07:59 14° 61° (ENE) 17:10:39 137.62
ITUPSAT 1 31 Jul 17:07:43 17:10:15 14° 297° (WNW) 17:12:47 437.325
Cosmos 2499 31 Jul 17:19:33 17:27:11 32° 288° (WNW) 17:34:38 435.465 / 435.565
HORYU 2 31 Jul 17:21:28 17:25:57 84° 77° (ENE) 17:30:29 437.375
STARS 31 Jul 17:26:09 17:30:34 62° 101° (ESE) 17:34:56 437.465
PHONESAT 2.4 31 Jul 17:28:42 17:31:44 56° 357° (N) 17:34:46 2401.200-2431.200
PCSat 31 Jul 17:31:26 17:34:44 17° 104° (ESE) 17:38:02 145.827
RS-15 31 Jul 17:42:14 17:52:36 34° 256° (WSW) 18:02:50 29.354- 29.394
LilacSat-2 31 Jul 17:57:22 18:00:28 23° 70° (ENE) 18:03:34 437.200
BEESAT 3 31 Jul 18:01:15 18:05:08 64° 302° (WNW) 18:09:03 437.485
CUBESAT XI-V 31 Jul 18:08:41 18:13:08 46° 99° (E) 18:17:37 437.345
MOZHAYETS 4 31 Jul 18:13:42 18:16:54 19° 293° (WNW) 18:20:04
BRITE-PL 31 Jul 18:16:14 18:20:21 77° 76° (ENE) 18:24:34 437.365/2234.400
Cubesat XI-IV 31 Jul 18:16:41 18:21:50 49° 72° (ENE) 18:27:01 437.490
BEESAT 2 31 Jul 18:17:36 18:21:33 83° 303° (WNW) 18:25:33 435.950
NOAA 18 31 Jul 18:17:44 18:23:04 52° 71° (ENE) 18:28:27 137.9125
DOVE 4 31 Jul 18:20:48 18:23:35 17° 65° (ENE) 18:26:30 437.250
HO-68 31 Jul 18:28:50 18:32:13 14° 53° (NE) 18:35:35 435.675
CUTE-I 31 Jul 18:38:26 18:43:48 79° 75° (ENE) 18:49:11 437.470
KKS-1 31 Jul 18:40:17 18:41:46 11° 298° (WNW) 18:43:15 437.445
NOAA 15 31 Jul 18:41:54 18:47:07 72° 258° (WSW) 18:52:22 137.62
ISS 31 Jul 18:47:58 18:49:56 15° 129° (SE) 18:51:54 145.825
GOMX 1 31 Jul 18:52:00 18:56:12 82° 75° (ENE) 19:00:38 467.674
O/OREOS (USA 219) 31 Jul 18:59:10 19:01:13 13° 98° (E) 19:03:15 437.305
STARS 31 Jul 19:04:35 19:06:22 12° 297° (WNW) 19:08:09 437.465
PHONESAT 2.4 31 Jul 19:05:16 19:08:21 84° 14° (NNE) 19:11:26 2401.200-2431.200
PCSat 31 Jul 19:12:12 19:17:33 62° 300° (WNW) 19:22:57 145.827
CANX-2 31 Jul 19:22:01 19:24:56 18° 67° (ENE) 19:27:50 2200.000
AIST 2 31 Jul 19:24:50 19:27:54 21° 111° (ESE) 19:31:00 435.215
CINEMA 3 31 Jul 19:30:49 19:34:42 27° 68° (ENE) 19:38:44 145.822/145.860
LilacSat-2 31 Jul 19:31:35 19:34:40 22° 265° (W) 19:37:47 437.200
CUTE 1.7 + AOD 2 31 Jul 19:34:02 19:37:16 21° 68° (ENE) 19:40:29 437.475
CUBESAT XI-V 31 Jul 19:47:14 19:50:08 17° 294° (WNW) 19:53:02 437.345
Cosmos 2491 31 Jul 19:53:00 19:56:35 13° 76° (ENE) 20:00:11 435.465 / 435.565
DOVE 4 31 Jul 19:56:44 20:00:52 43° 262° (W) 20:05:17 437.250
Cubesat XI-IV 31 Jul 19:58:19 20:02:08 20° 267° (W) 20:05:59 437.490
NOAA 18 31 Jul 20:00:04 20:03:59 20° 266° (W) 20:07:56 137.9125
SEEDS 31 Jul 20:03:02 20:06:45 31° 71° (ENE) 20:10:29 437.485
CUBEBUG 2 31 Jul 20:03:51 20:07:04 19° 66° (ENE) 20:10:19 437.445
STRAND 1 31 Jul 20:04:40 20:09:31 42° 99° (E) 20:14:19 437.568
COMPASS 1 31 Jul 20:05:31 20:08:48 23° 69° (ENE) 20:12:05 437.405
HO-68 31 Jul 20:11:34 20:18:43 76° 72° (ENE) 20:25:56 435.675
YUBILEINY 31 Jul 20:20:45 20:29:09 45° 75° (ENE) 20:37:27 435.215
CUTE-I 31 Jul 20:22:39 20:24:24 11° 270° (W) 20:26:09 437.470
ISS 31 Jul 20:22:54 20:26:05 49° 325° (NW) 20:29:15 145.825
AAUSAT CUBESAT 2 31 Jul 20:28:06 20:31:48 32° 72° (ENE) 20:35:30 437.432
O/OREOS (USA 219) 31 Jul 20:35:45 20:40:06 52° 294° (WNW) 20:44:29 437.305
PHONESAT 2.4 31 Jul 20:42:05 20:44:38 24° 209° (SSW) 20:47:11 2401.200-2431.200
Cosmos 2504 31 Jul 20:44:23 20:49:43 19° 65° (ENE) 20:54:48 435.465 / 435.565
FUNcube-1 31 Jul 20:51:12 20:54:50 24° 68° (ENE) 20:58:28 145.935
AO-85 31 Jul 20:54:49 20:57:30 16° 43° (NE) 21:00:04 145.980
ZACube-1 31 Jul 20:54:51 20:58:42 27° 69° (ENE) 21:02:35 437.345
CANX-2 31 Jul 20:56:34 21:00:31 36° 263° (W) 21:04:27 2200.000
PCSat 31 Jul 21:00:58 21:02:04 11° 320° (NW) 21:03:10 145.827
AIST 2 31 Jul 21:02:27 21:06:10 33° 307° (NW) 21:09:56 435.215
UWE-3 31 Jul 21:05:27 21:09:57 55° 74° (ENE) 21:14:32 435.000/436.395/437.385
CINEMA 3 31 Jul 21:07:46 21:11:43 28° 265° (W) 21:15:51 145.822/145.860
CUTE 1.7 + AOD 2 31 Jul 21:09:09 21:12:55 30° 264° (W) 21:16:41 437.475
M-CUBED/EXP-1 PRIME 31 Jul 21:21:34 21:24:26 19° 61° (ENE) 21:27:28 437.505
Oscar 11 31 Jul 21:25:41 21:29:57 60° 75° (ENE) 21:34:15 145.826/435.025
HUMSAT D 31 Jul 21:25:45 21:27:27 12° 64° (ENE) 21:29:10 437.325/437.525
CUBEBUG 2 31 Jul 21:38:54 21:43:18 43° 262° (W) 21:47:50 437.445
SEEDS 31 Jul 21:39:23 21:42:29 20° 266° (W) 21:45:34 437.485
COMPASS 1 31 Jul 21:40:42 21:44:13 26° 264° (W) 21:47:45 437.405
DELFI C3 31 Jul 21:41:40 21:45:19 35° 72° (ENE) 21:48:56 145.870
AUBIESAT-1 31 Jul 21:42:27 21:45:49 27° 63° (ENE) 21:49:23 437.475
STRAND 1 31 Jul 21:44:33 21:48:22 22° 295° (WNW) 21:52:11 437.568
